[ hide orbit diagram ]
For accurate long-term ephemerides, please instead use our Horizons system.This orbit viewer was implemented using two-body methods, and hence should not be used for determining accurate long-term trajectories (over several years or decades) or planetary encounter circumstances.
Orbital Elements at Epoch 2459200.5 (2020-Dec-17.0) TDB
Reference: JPL 21 (heliocentric ecliptic J2000)
Element | Value | Uncertainty (1-sigma) | Units |
e | .2451622016349115 | 7.9405e-08 | |
a | 3.104194568898742 | 6.0389e-08 | au |
q | 2.343163394084391 | 2.5224e-07 | au |
i | 11.01576188879813 | 8.4341e-06 | deg |
node | 254.1126113593838 | 7.986e-05 | deg |
peri | 196.4224390619451 | 9.1405e-05 | deg |
M | 2.02421170772411 | 3.4404e-05 | deg |
tp | 2459189.267530173657 (2020-Dec-05.76753017) | 0.00019091 | TDB |
period | 1997.661174497417 5.47 | 5.8294e-05 1.596e-07 | d yr |
n | .1802107407381389 | 5.2588e-09 | deg/d |
Q | 3.865225743713092 | 7.5194e-08 | au |
|
| | Orbit Determination Parameters
Additional Information
|
[ show covariance matrix ]
Physical Parameter Table
Parameter |
Symbol |
Value |
Units |
Sigma |
Reference |
Notes |
absolute magnitude |
H |
16.4 |
|
n/a |
MPO495288 |
|
diameter |
diameter |
3.609 |
km |
0.138 |
urn:nasa:pds:neowise_diameters_albedos::2.0[mainbelt] (http://adsabs.harvard.edu/abs/2011ApJ...741...68M) |
|
geometric albedo |
albedo |
0.041 |
|
0.006 |
urn:nasa:pds:neowise_diameters_albedos::2.0[mainbelt] (http://adsabs.harvard.edu/abs/2011ApJ...741...68M) |
|
|
458063 Gustavomuler | Discovered 2009 Dec. 21 by E. Schwab at Tzec Maun. |
Gustavo Muler (b. 1967) is a Spanish amateur astronomer, born in Argentina. He has discovered numerous minor planets at his private observatory Nazaret on Lanzarote Island and in 2007 he confirmed the outburst of Comet 17P/Holmes. He made follow-up observations of this minor planet. |
NOTE: some special characters may not display properly (any characters within {} are an attempt to place the proper accent above a character) |
Reference: MPC batch dated 2017-01-12 | Last Updated: 2017-01-17 |
|
[ show close-approach data ]
|